Regional Weather Roundup
Issued by NWS Charleston, SC

Home | Current Version | Previous Version | Text Only | Print | Product List | Glossary On
Versions: 1 2 3 4 5 6 7 8 9 10 11 12 13 14 15 16 17 18 19 20 21 22 23 24 25 26 27 28 29 30 31 32 33 34 35 36 37 38 39 40 41 42 43 44 45 46 47 48 49 50
257
ASUS42 KCHS 242127
RWRCHS

Regional Weather Roundup
National Weather Service Charleston SC
500 PM EDT TUE APR 24 2018

NOTE: "fair" indicates few or no clouds below 12,000 feet with no
significant weather and/or obstructions to visibility.

Not all stations are quality controlled. Use data with caution,
especially dewpoint observations.

SCZ027-030-031-034>040-042>050-242200-
...Southeast South Carolina...

CITY           SKY/WX    TMP DP  RH WIND       PRES   REMARKS
N Charleston   FAIR      75  62  64 S15       29.79S
Waterfront Prk   N/A     69  63  81 SW10      29.65F
Mount Pleasant FAIR      72  63  73 S12       29.80S
Johns Island   FAIR      72  61  68 S14       29.81S
Pinopolis        N/A     75  57  53 SW6       29.71F
Moncks Corner  CLOUDY    72  61  68 SE5       29.78S
Summerville    MOCLDY    75  55  50 SW7       29.79S
Beaufort MCAS  PTSUNNY   73  63  70 S8        29.80F
Beaufort Arpt  FAIR      73  61  64 S8        29.81R
Hilton Head Is PTSUNNY   72  61  68 S12G20    29.83S
Walterboro     MOCLDY    77  55  47 W14G23    29.80S
Allendale      CLOUDY    73  55  53 CALM      29.80S

...Southern Midlands and Pee Dee...

CITY           SKY/WX    TMP DP  RH WIND       PRES   REMARKS
Georgetown     FAIR      72  55  56 S13       29.81S
Kingstree      FAIR      77  54  44 SW8       29.77S
Orangeburg     LGT RAIN  76  54  46 SW15      29.78F
Barnwell       FAIR      75  54  46 SW12G21   29.79F
Aiken          FAIR      73  52  46 SW12G17   29.81F
Manning        FAIR      72  54  53 SW8       29.77S
Columbia       FAIR      77  56  48 S14       29.75F
Sumter         CLOUDY    78  57  48 S10       29.74F
Florence       FAIR      80  55  42 SW10      29.76F
Myrtle Beach   PTSUNNY   68  63  83 S14       29.82F
N Myrtle Beach FAIR      69  64  84 S13       29.81F

$$

GAZ063-065-086>088-099>101-113>116-118-119-134>141-150-242200-
...Southeast Georgia...

CITY           SKY/WX    TMP DP  RH WIND       PRES   REMARKS
Savannah Arpt  PTSUNNY   76  54  46 W13       29.82S
Hunter AAF     PTSUNNY   78  54  43 W16       29.79F
Fort Stewart   CLOUDY    76  53  43 W10       29.81S
Statesboro     CLOUDY    74  50  42 W12G18    29.83R
Sylvania       CLOUDY    74  60  61 W8        29.82S
Claxton        CLOUDY    75  56  51 SW9G16    29.83S

...CSRA, Central and far Southeast Georgia...

CITY           SKY/WX    TMP DP  RH WIND       PRES   REMARKS
Thomson        CLOUDY    67  58  72 NW10      29.86S
Augusta-Bush   CLOUDY    74  56  53 W12       29.79S
Augusta-Daniel CLOUDY    73  56  54 SW9       29.80S
Swainsboro     CLOUDY    72  55  56 W8G17     29.84F
Vidalia        CLOUDY    72  55  56 W8        29.84S
Eastman        CLOUDY    73  45  36 W7        29.87F
Hazlehurst     MOCLDY    74  51  44 W6        29.84S
Alma           PTSUNNY   75  52  44 W14G21    29.85F
Waycross       FAIR      76  49  38 W10       29.85S
Jesup          NOT AVBL
Baxley         CLOUDY    72  52  49 W8        29.85S
Brunswick      CLOUDY    77  52  41 W10       29.84S
Saint Simons   PTSUNNY   77  55  46 W13       29.83F

$$

SCZ027-028-034-036>038-045-046-048>050-GAZ119-141-242200-
...Lake and Supplemental Coastal Observations...

STATION/POSITION TIME  TEMP    WIND        PRES    WAVE   SWELL
                       AIR SEA DIR/SP/G            HT/PER HT/PER/DIR
                 (UTC) (F)     (DEG/KT/KT) (MB)    (FT/S) (FT/S/D)
Winyah Bay       2045   68     190/ 15     1009.0F
Lake Murray      2020   72     230/ 10/ 13 1007.1F
ACE Basin NERRS  2045   73     350/  2       N/A
Fort Pulaski     2100   71 66  190/  6/ 11 1009.8
Sapelo Island    2100   76     270/ 14     1010.0

$$

ANZ835-935-AMZ111-154-330-350-352-354-370-450-454-472-242200-
...C-MAN and Buoy Observations...

STATION/POSITION TIME  TEMP    WIND        PRES    WAVE   SWELL
                       AIR SEA DIR/SP/G            HT/PER HT/PER/DIR
                 (UTC) (F)     (DEG/KT/KT) (MB)    (FT/S) (FT/S/D)
Buoy 41004       2110      69  220/ 16/ 21 1009.9
Buoy 41008       2050   67 66  170/ 12/ 14 1009.7F   5/ 9   3/ 80/ 9
Folly Beach CMAN 2100   66     200/ 13/ 14 1010.1F
Capers Nearshore 2108   65 64  210/ 12/ 16 1008.4F
Fripp Nearshore  2108   67 66  200/ 12/ 19 1009.1R


STATION/POSITION TIME  TEMP    WIND        PRES    WAVE   SWELL
                       AIR SEA DIR/SP/G            HT/PER HT/PER/DIR
                 (UTC) (F)     (DEG/KT/KT) (MB)    (FT/S) (FT/S/D)
5E St. Marys GA  2100      69                N/A     4/ 9   2/100/11
Frying Pan Buoy  2110   72 71  130/ 17/ 23 1009.9
Buoy 41025       2110   69 71  140/ 31/ 39 1014.6
Cape Lookout NC  2100          140/ 19/ 21 1012.0F
Buoy 41002       2110   72 73  150/ 31/ 39 1012.9
Buoy 41010       2110   77 76  170/  6/  8 1012.5
St Augustine FL  2100   79 69  240/  8/ 12 1011.2F


$$




USA.gov is the U.S. government's official web portal to all federal, state and local government web resources and services.